Simultaneous Nadir Overpasses (SNOs) Predictions

Prediction of SNOs between AQUA and METOP-A Satellite Orbit:

Table of predicted SNOs for the next 14.0 days since TLE Epoch: 12/27/2019
Index Date (AQUA) Time (AQUA) Lat,Lon (AQUA) SZA (AQUA ) Date (METOP-A) Time (METOP-A) Lat,Lon (METOP-A) SZA (METOP-A ) Distance(km) Time Diff (sec)
1 12/30/2019 07:35:22 75.49, 56.32 98.80 12/30/2019 07:34:12 75.41, 54.76 98.81 44.46 70
2 12/30/2019 08:24:53 -75.78,-136.87 80.88 12/30/2019 08:24:46 -75.78,-136.77 80.88 2.89 7
3 12/30/2019 09:14:22 75.83, 30.60 99.18 12/30/2019 09:15:25 75.82, 30.67 99.15 2.36 63
4 01/02/2020 03:09:41 75.73, 122.07 98.87 01/02/2020 03:08:28 75.69, 121.98 98.86 4.65 73
5 01/02/2020 03:59:07 -75.76, -70.39 81.09 01/02/2020 03:59:08 -75.78, -70.41 81.07 2.36 1
6 01/02/2020 04:48:36 75.82, 97.07 98.98 01/02/2020 04:49:47 75.81, 97.02 98.96 1.48 71
7 01/04/2020 22:43:56 75.72,-171.48 98.62 01/04/2020 22:42:50 75.73,-171.53 98.64 1.68 66
8 01/04/2020 23:33:23 -75.80, -4.08 81.30 01/04/2020 23:33:31 -75.78, -4.06 81.33 2.58 8
9 01/05/2020 00:22:55 76.02, 162.91 98.94 01/05/2020 00:24:05 76.04, 164.12 98.90 32.60 70
10 01/07/2020 18:18:11 75.73,-105.06 98.31 01/07/2020 18:17:13 75.73,-105.19 98.33 3.80 58
11 01/07/2020 19:07:38 -75.80, 62.37 81.62 01/07/2020 19:07:53 -75.82, 62.44 81.60 3.09 15
12 01/07/2020 19:57:16 76.31,-131.58 98.96 01/07/2020 19:58:22 76.32,-128.60 98.81 78.60 66
13 01/10/2020 13:52:27 75.79, -38.79 98.00 01/10/2020 13:51:35 75.77, -38.71 97.99 3.10 52
14 01/10/2020 14:41:52 -75.81, 128.80 81.99 01/10/2020 14:42:15 -75.82, 128.78 81.98 1.51 23




NCC Satellite Simultaneous Nadir Overpasses (SNOs) Prediction Service
